Regional Weather Roundup
Issued by NWS San Angelo, TX

Home | Current Version | Previous Version | Text Only | Print | Product List | Glossary On
Versions: 1 2 3 4 5 6 7 8 9 10 11 12 13 14 15 16 17 18 19 20 21 22 23 24 25 26 27 28 29 30 31 32 33 34 35 36 37 38 39 40 41 42 43 44 45 46 47 48 49 50
819
ASUS44 KSJT 231010
RWRSJT
WEST CENTRAL TEXAS REGIONAL WEATHER ROUNDUP
NATIONAL WEATHER SERVICE SAN ANGELO TX
500 AM CDT THU MAR 23 2017

NOTE: "FAIR" INDICATES FEW OR NO CLOUDS BELOW 12,000 FEET WITH NO
SIGNIFICANT WEATHER AND/OR OBSTRUCTIONS TO VISIBILITY.

TXZ049-054-064>066-071>073-076>078-098-099-113-114-127-128-139-140-
154-155-168>170-231100
...LOCATIONS ACROSS WEST CENTRAL TEXAS...

CITY           SKY/WX    TMP DP  RH WIND       PRES   REMARKS
SAN ANGELO     CLEAR     65  57  75 S14G21    29.96F
ABILENE        PTCLDY    62  59  90 S18       29.95S
DYESS AFB      CLEAR     64  60  87 SW23G29   29.91F
JUNCTION       CLEAR     64  58  80 S9        30.00F
SWEETWATER     CLEAR     63  58  86 S22G28    29.95F
BROWNWOOD      CLOUDY    64  61  88 S14G20    30.00S
COLEMAN        MOSUNNY   64  59  83 S8        29.99S
SONORA         CLEAR     63  59  88 S9        30.05S
OZONA            N/A     63  55  77 MISG      30.01F
BRADY          NOT AVBL
$$

TEXAS PANHANDLE/OKLAHOMA PANHANDLE

CITY           SKY/WX    TMP DP  RH WIND       PRES   REMARKS
AMARILLO       CLOUDY    59  55  87 S24       29.88F
BORGER         CLEAR     59  53  80 S13       29.86F
CANADIAN       CLEAR     60  58  91 CALM      29.87S
DALHART        CLEAR     54  51  90 S12       29.86F
DUMAS          SUNNY     57  51  80 S16       29.86F
GUYMON         NOT AVBL
HEREFORD       MOSUNNY   61  57  88 S23G30    29.88F
PAMPA          SUNNY     58  55  89 S23G30    29.87F
PERRYTON       CLEAR     58  56  93 S13       29.84F
$$

SOUTHERN PANHANDLE/SOUTH PLAINS/ROLLING PLAINS

CITY           SKY/WX    TMP DP  RH WIND       PRES   REMARKS
LUBBOCK        MOCLDY    63  58  83 S26G37    29.92S
SNYDER         CLEAR     62  58  87 S14       29.94R
CHILDRESS      CLEAR     60  54  80 SE10      29.90S
SEMINOLE       MOSUNNY   61  56  85 S12       29.92F
$$

PERMIAN BASIN

CITY           SKY/WX    TMP DP  RH WIND       PRES   REMARKS
MIDLAND        PTCLDY    66  54  65 S16       29.92S
ODESSA           N/A     66  54  65 SW17      29.94R
WINK             N/A    N/A N/A N/A MISG      29.86F
$$

FAR WEST/SOUTHWEST MOUNTAINS/TRANS PECOS

CITY           SKY/WX    TMP DP  RH WIND       PRES   REMARKS
ALPINE         SUNNY     63  51  63 CALM      30.03F
DRYDEN           N/A     63  58  83 E10       29.94F
EL PASO        MOCLDY    64  18  17 SE7       29.89F
FORT STOCKTON  CLEAR     63  56  78 S15       29.90S
GUADALUPE PASS CLEAR     63  13  14 SW12        N/A
MARFA          CLEAR     56  50  80 S7        30.02F
PECOS          SUNNY     64  56  75 E12       29.86S
$$

DALLAS/FORT WORTH METROPLEX

CITY           SKY/WX    TMP DP  RH WIND       PRES   REMARKS
DFW AIRPORT    PTCLDY    67  62  84 S16       30.00F
FTW MEACHAM    CLEAR     65  59  81 SE13      30.01F
DAL-EXECUTIVE  CLOUDY    66  62  87 S12G24    30.04S
GRAND PRAIRIE  CLOUDY    65  60  82 SE12G18   30.05S
ADDISON        CLEAR     64  60  87 S9        30.05F
MESQUITE       MOSUNNY   61  59  94 S8        30.05F
LANCASTER      CLOUDY    64  61  91 S10       30.06S
$$

NORTH CENTRAL TEXAS

CITY           SKY/WX    TMP DP  RH WIND       PRES   REMARKS
SHRMAN/DENISON SUNNY     58  56  94 E9        30.05S
GAINESVILLE    CLEAR     62  58  88 SE12      30.02F
BRIDGEPORT     SUNNY     64  58  82 SE8       30.00F
DENTON         CLEAR     64  60  87 S12       30.01F
WAXAHACHIE     CLOUDY    64  63  95 S13G20    30.06S
GRANBURY       PTSUNNY   65  61  86 SE9       30.02S
$$

WESTERN NORTH TEXAS

CITY           SKY/WX    TMP DP  RH WIND       PRES   REMARKS
WICHITA FALLS  CLEAR     61  57  87 SE10      29.93F
VERNON         SUNNY     64  55  71 SE12      29.93S
BRECKENRIDGE   SUNNY     66  59  77 S17G23    29.95S
COMANCHE       CLOUDY    65  63  91 S17G24    30.00F
$$

CENTRAL AND SOUTH CENTRAL TEXAS

CITY           SKY/WX    TMP DP  RH WIND       PRES   REMARKS
AUSTIN/BERGSTM MOCLDY    68  63  84 S13       30.07S
WACO           CLEAR     65  63  93 S13       30.05S
HILLSBORO      CLOUDY    66  62  86 S14G22    30.05S
TEMPLE         CLEAR     64  62  93 S13       30.06S
KILLEEN-GRAY   CLOUDY    64  60  90 SE13      30.04S
FORT HOOD      CLOUDY    63  60  91 S8        30.03S
GEORGETOWN     MOCLDY    66  57  72 S13G20    30.06S
LAGO VISTA     CLOUDY    65  61  86 S10G17    30.07S
SAN MARCOS     CLOUDY    66  63  88 S12       30.09S
NEW BRAUNFELS  CLOUDY    67  63  87 S18       30.06F
RANDOLPH AFB   CLOUDY    66  66 100 S12       30.07F
SAN ANTONIO    MOCLDY    66  61  84 S13       30.08F
STINSON        CLOUDY    68  63  84 S8        30.06F
PLEASANTON     NOT AVBL
LA GRANGE      PTCLDY    65  64  97 S5        30.07S
GIDDINGS       DRIZZLE   65  63  93 S7        30.09S
$$

EAST TEXAS

CITY           SKY/WX    TMP DP  RH WIND       PRES   REMARKS
PARIS          CLEAR     55  48  76 E14       30.10S
CLARKSVILLE    NOT AVBL
TYLER          PTCLDY    63  63 100 S8        30.09S
LONGVIEW       CLOUDY    62  61  96 VRB3      30.10F
PALESTINE      MOSUNNY   63  63  99 SE5       30.11S
NACOGDOCHES    CLOUDY    64  61  88 S8        30.11F
$$

TEXAS HILL COUNTRY AND EDWARDS PLATEAU

CITY           SKY/WX    TMP DP  RH WIND       PRES   REMARKS
LLANO          SUNNY     64  61  88 SE5       30.07S
HORSESHOE BAY  PTSUNNY   65  60  82 S10G18    30.06S
KERRVILLE      CLOUDY    63  59  89 S14G20    30.07F
FREDERICKSBRG  CLOUDY    62  56  83 S12       30.06S
ROCKSPRINGS    CLOUDY    61  57  88 S21       30.05S
HONDO          CLOUDY    68  63  84 S10G20    30.06F
UVALDE         CLOUDY    64  62  94 SE12      30.05R
DEL RIO        CLOUDY    66  61  84 E13       29.98F
$$

SOUTHEAST TEXAS

CITY           SKY/WX    TMP DP  RH WIND       PRES   REMARKS
COLLEGE STN    MOCLDY    64  64 100 S8        30.09S
CALDWELL       NOT AVBL
CROCKETT       PTSUNNY   64  64 100 S9        30.14S
BRENHAM        PTCLDY    65  65  99 SE5         N/A
HUNTSVILLE     PTCLDY    67  64  90 S8        30.10F
CONROE         MOCLDY    58  58 100 CALM      30.11S
HOUSTON BUSH   PTCLDY    64  63  96 SE3       30.11S
HOUSTON HOBBY  PTCLDY    65  63  93 SE3       30.11S
PERLAND        PTCLDY    67  63  87 SE5       30.12S
WHARTON        MOSUNNY   63  62  97 CALM      30.11S FOG
$$

THE UPPER TEXAS COAST

CITY           SKY/WX    TMP DP  RH WIND       PRES   REMARKS
ORANGE         MOSUNNY   64  64 100 CALM      30.15F FOG
PORT ARTHUR    FOG       58  57  97 SE5       30.12F VSB 1/4
GALVESTON      PTCLDY    71  67  87 S12       30.12S
ANGLETON       PTCLDY    66  64  93 S7        30.11S
BAY CITY       PTSUNNY   65  64  99 SE3       30.10S
$$

TEXAS COASTAL BEND, RIO GRANDE PLAINS DEEP SOUTH TEXAS

CITY           SKY/WX    TMP DP  RH WIND       PRES   REMARKS
VICTORIA       PTCLDY    64  62  93 SE6       30.08F
BEEVILLE       FOG       51  51 100 E5        30.06F VSB 1/4
ROCKPORT       CLEAR     71  65  81 S7        30.06F
PORT ARANSAS   SUNNY     69  65  87 S12       30.06F
PORT LAVACA    PTSUNNY   65  65 100 CALM      30.08F
CORPUS CHRISTI PTCLDY    67  66  97 SE12      30.06S
KINGSVILLE NAS PTCLDY    67  67 100 SE7       30.04F
COTULLA        MOCLDY    68  63  84 SE12      30.02S
LAREDO         PTCLDY    69  64  84 SE15      30.00F
BROWNSVILLE    CLEAR     67  64  90 SE7       30.05F
PORT ISABEL    CLEAR     70  66  87 SE10      30.04F
HEBBRONVILLE   CLOUDY    64  63  96 S10       30.04F
MCALLEN        CLEAR     68  64  87 SE9       30.03F
WESLACO        PTCLDY    67  64  91 S7        30.03S
FALFURRIAS     SUNNY     65  64  96 SE6       30.04S
EDINBURG       SUNNY     67  64  91 SE7       30.04S
$$




USA.gov is the U.S. government's official web portal to all federal, state and local government web resources and services.